Maun, Botswana

7:59 AM CAT on August 21, 2017 (GMT +0200)
Maun

Weather History for FBMN - March, 2013

Change the Weather History Date:

Friday, March 29, 2013

  Actual Average Record
Temperature  
Mean Temperature 79 °F -  
Max Temperature 93 °F 86 °F 127 °F (2017)
Min Temperature 65 °F 61 °F 60 °F (2006)
Cooling Degree Days 14    
Growing Degree Days 29 (Base 50)    
Moisture  
Dew Point 59 °F    
Average Humidity 45    
Maximum Humidity 64    
Minimum Humidity 27    
Precipitation  
Precipitation 0.00 in - - ()
Sea Level Pressure  
Sea Level Pressure 30.07 in    
Wind  
Wind Speed 7 mph ()    
Max Wind Speed 12 mph    
Max Gust Speed -    
Visibility 6.2 miles    
Events      
Averages and records for this station are not official NWS values.
T = Trace of Precipitation, MM = Missing Value Source: Averaged Metar Reports

Daily Weather History Graph

Daily Weather History Graph

Search for Another Location

Airport or City:

Trip Planner

Search our weather history database for the weather conditions in past years. The results will help you decide how hot, cold, wet, or windy it might be!

Date:

Astronomy

Mar. 29, 2013 Rise Set
Actual Time 6:32 AM CAT 6:29 PM CAT
Civil Twilight 6:10 AM CAT 6:51 PM CAT
Nautical Twilight 5:44 AM CAT 7:16 PM CAT
Astronomical Twilight 5:19 AM CAT 7:42 PM CAT
Moon 8:04 PM CAT (3/29) 8:21 AM CAT (3/29)
Length of Visible Light 12h 40m
Length of Day
11h 56m
Waning Gibbous, 95% of the Moon is Illuminated
Mar 29
Waning Gibbous
Apr 3
Last Quarter
Apr 10
New
Apr 18
First Quarter
Apr 25
Full

Hourly Weather History & Observations

Time (CAT) Temp. Heat Index Dew Point Humidity Pressure Visibility Wind Dir Wind Speed Gust Speed Precip Events Conditions
12:00 AM 75.2 °F - 57.2 °F 53% 30.06 in - East 11.5 mph - N/A   Clear
3:00 AM 73.4 °F - 55.4 °F 53% 30.06 in - East 10.4 mph - N/A   Clear
5:00 AM 71.6 °F - 55.4 °F 57% 30.09 in - ESE 10.4 mph - N/A   Clear
6:00 AM 68.0 °F - 55.4 °F 64% 30.12 in - ESE 5.8 mph - N/A   Clear
7:00 AM 68.0 °F - 53.6 °F 60% 30.12 in - East 8.1 mph - N/A   Clear
8:00 AM 71 °F - 55 °F 48%  in 6 mi East 10.4 mph - -   Partly Cloudy
8:00 AM 71.6 °F - 55.4 °F 57% 30.15 in - East 10.4 mph - N/A   Clear
9:00 AM 75.2 °F - 57.2 °F 53% 30.15 in - East 10.4 mph - N/A   Clear
10:00 AM 80.6 °F 81.1 °F 59.0 °F 48% 30.15 in - East 8.1 mph - N/A   Clear
11:00 AM 84.2 °F 83.8 °F 59.0 °F 42% 30.15 in - ENE 8.1 mph - N/A   Clear
12:00 PM 87.8 °F 88.5 °F 62.6 °F 43% 30.12 in 6.2 mi NNE 4.6 mph - N/A   Partly Cloudy
1:00 PM 89.6 °F 89.5 °F 60.8 °F 38% 30.09 in 6.2 mi NNW 3.5 mph - N/A   Partly Cloudy
2:00 PM 92 °F - 62 °F 27%  in 6 mi ENE 4.6 mph - -   Partly Cloudy
2:00 PM 93.2 °F 94.1 °F 62.6 °F 36% 30.06 in 6.2 mi ENE 4.6 mph - N/A   Mostly Cloudy
3:00 PM 91.4 °F 91.4 °F 60.8 °F 36% 30.04 in 6.2 mi North 5.8 mph - N/A   Partly Cloudy
4:00 PM 93.2 °F 94.1 °F 62.6 °F 36% 30.01 in 6.2 mi SSW 6.9 mph - N/A   Partly Cloudy
5:00 PM 91.4 °F 90.7 °F 59.0 °F 34% 30.01 in 6.2 mi ESE 9.2 mph - N/A   Partly Cloudy
6:00 PM 89.6 °F 88.9 °F 59.0 °F 36% 30.01 in 6.2 mi East 6.9 mph - N/A   Partly Cloudy
7:00 PM 87.8 °F 87.6 °F 60.8 °F 40% 30.01 in 6.2 mi NNE 4.6 mph - N/A   Partly Cloudy
8:00 PM 84 °F - 62 °F 38%  in 6 mi SE 3.5 mph - -   Partly Cloudy
8:00 PM 84.2 °F 85.0 °F 62.6 °F 48% 30.01 in 6.2 mi SE 3.5 mph - N/A   Scattered Clouds
9:00 PM 80.6 °F 81.1 °F 59.0 °F 48% 30.04 in 6.2 mi SE 8.1 mph - N/A   Scattered Clouds
10:00 PM 78.8 °F - 55.4 °F 44% 30.06 in 6.2 mi SE 10.4 mph - N/A   Scattered Clouds
11:00 PM 77.0 °F - 55.4 °F 47% 30.06 in - SE 6.9 mph - N/A   Clear